Flag for United Kingdom Weather past 2 weeks in Lichfield, England, United Kingdom

Now
57 °F

Partly sunny.


Feels Like: 53 °F
Forecast: 52 / 55 °F
Wind: 17 mph from Southwest

Location: Birmingham / Airport

Current Time: Dec 18, 2014 at 1:03:44 PM

Latest Report: Dec 18, 2014 at 12:20 PM


Visibility: N/A

Pressure: 29.71 "Hg

Humidity: 77%

Dew point: 50 °F

Location of LichfieldLocation

Historic Weather in Lichfield — Graph

°F

Lichfield temperature yesterday

Maximum temperature yesterday: 55 °F (at 12:50 PM)
Minimum temperature yesterday: 45 °F (at 12:20 AM)
Average temperature yesterday: 51 °F

Past Weeks' High & Low Weather Summary

 TemperatureHumidityPressure
High57 °F (Dec 18, 10:20 AM)100% (Dec 4, 6:20 AM)30.36 "Hg (Dec 4, 6:20 AM)
Low28 °F (Dec 13, 7:20 AM)53% (Dec 7, 2:20 PM)29.12 "Hg (Dec 12, 3:50 AM)
Average42 °F84%29.90 "Hg
* Reported Dec 3 11:20 AM — Dec 18 11:50 AM, Lichfield, Weather by CustomWeather, © 2014

Note: Actual official high and low records may vary slightly from our data, if they occured in-between our weather recording intervals... More about our weather records

Advertising

Lichfield weather history for previous 24 hours

 ConditionsComfort  
Time TempWeatherWind HumidityBarometerVisibility
11:50 AM
Dec 18
57 °FSprinkles. Partly sunny.15 mph77%29.71 "HgN/A
11:20 AM57 °FPartly sunny.16 mph77%29.71 "HgN/A
10:20 AM57 °FPartly sunny.17 mph77%29.71 "HgN/A
9:50 AM55 °FPartly sunny.13 mph82%29.71 "HgN/A
9:20 AM55 °FPartly sunny.13 mph82%29.71 "HgN/A
8:50 AM55 °FPartly sunny.15 mph82%29.71 "HgN/A
8:20 AM55 °FPartly sunny.10 mph82%29.71 "HgN/A
7:50 AM54 °FPassing clouds.13 mph88%29.71 "HgN/A
7:20 AM54 °FPassing clouds.12 mph88%29.71 "HgN/A
6:50 AM54 °FPassing clouds.13 mph88%29.71 "HgN/A
6:20 AM54 °FPassing clouds.12 mph88%29.71 "HgN/A
5:50 AM54 °FMostly cloudy.12 mph88%29.71 "HgN/A
5:20 AM54 °FPassing clouds.10 mph94%29.71 "HgN/A
4:50 AM54 °FPassing clouds.10 mph94%29.71 "HgN/A
4:20 AM54 °FPassing clouds.9 mph94%29.71 "Hg6 mi
3:20 AM54 °FMostly cloudy.7 mph94%29.71 "HgN/A
2:50 AM54 °FOvercast.9 mph94%29.71 "HgN/A
2:20 AM54 °FMostly cloudy.9 mph94%29.71 "HgN/A
1:50 AM54 °FOvercast.7 mph94%29.74 "HgN/A
1:20 AM54 °FPassing clouds.6 mph94%29.74 "Hg4 mi
12:50 AM52 °FPartly cloudy.8 mph94%29.71 "HgN/A
12:20 AM52 °FMostly cloudy.6 mph94%29.71 "HgN/A
11:50 PM
Dec 17
52 °FPassing clouds.6 mph94%29.74 "HgN/A
11:20 PM52 °FPartly cloudy.8 mph94%29.74 "HgN/A
10:20 PM52 °FPassing clouds.7 mph94%29.74 "HgN/A
9:50 PM52 °FPartly cloudy.9 mph94%29.71 "HgN/A
9:20 PM52 °FPassing clouds.8 mph94%29.74 "HgN/A
8:50 PM52 °FPassing clouds.8 mph94%29.74 "HgN/A
8:20 PM52 °FMostly cloudy.8 mph94%29.74 "Hg5 mi
7:50 PM52 °FPartly cloudy.6 mph94%29.74 "Hg5 mi
7:20 PM52 °FLight rain. Mostly cloudy.7 mph94%29.71 "Hg6 mi
6:50 PM52 °FRain. Mostly cloudy.6 mph94%29.71 "Hg1 mi
6:20 PM52 °FRain. Overcast.7 mph94%29.71 "Hg2 mi
5:50 PM52 °FMixture of precip. Passing clouds.7 mph94%29.71 "Hg3 mi
5:20 PM54 °FPartly cloudy.9 mph88%29.71 "HgN/A
4:50 PM54 °FPartly cloudy.8 mph88%29.71 "HgN/A
4:20 PM54 °FPassing clouds.6 mph88%29.71 "HgN/A
3:50 PM54 °FBroken clouds.7 mph82%29.71 "HgN/A
3:20 PM54 °FPartly sunny.8 mph82%29.68 "HgN/A
2:50 PM54 °FScattered clouds.7 mph82%29.68 "HgN/A
2:20 PM54 °FPassing clouds.9 mph82%29.68 "HgN/A
1:50 PM54 °FPassing clouds.12 mph82%29.68 "HgN/A
1:20 PM55 °FScattered clouds.9 mph77%29.68 "HgN/A
Weather by CustomWeather, © 2014

See weather overviewHow to use our weather pages